Location: Filler
(36.7551°N, 30.4456°E)
Time: 22:42:31
(UTC+00:00)

NOSS 2-2 (E) - Pass Details

Date: 24 September 2024
Orbit: 399 x 1743 km, 63.3° (Epoch: 06 October)

Event Time Altitude Azimuth Distance (km) Brightness Sun altitude
Exits shadow 02:44:31 12° 315° (NW) 1,365 5.0 -13.5°
Drops below altitude 10° 02:45:39 10° 337° (NNW) 1,461 5.3 -13.2°
Sets 02:48:43 0° 11° (NNE) 2,321 6.8 -12.6°
